Starlink 4341

operational
NORAD ID: 53052 Int'l Des: 2022-077 Owner: SPXS Country: US Constellation: starlink
LEOCIRCULARRETROGRADESSO

Über Starlink 4341

Beschreibung wird geladen...

Live-Position

3D-Globus wird geladen...

Nächste Überflüge

Höhenverlauf

Altitude vs Time

uPlot chart will show altitude changes over time

Zweizeiliger Elementsatz

1 53052U 22077K 25352.44911914 .00000157 00000-0 16759-4 0 9998
2 53052 97.6034 170.6867 0002166 79.2489 280.8980 15.01264177188720
Epoch: 18. Dez. 2025 • Age: 21 hours

Aktueller Status

Höhe 568.3 km
Geschwindigkeit 7.58 km/s
Subsatellitenpunkt -11.97°S, 27.83°W
Startdatum 11. Juli 2022
Alter 3.4 years
Typ internet

Technische Details

Klassifizierung Payload
Masse 297.00 kg
Trockenmasse 275.00 kg
Gesamtmasse 297.00 kg
Länge 0.20 m
Durchmesser 2.80 m
Spannweite 9.00 m
Form Box + pan
Hersteller SPXS
Bus-Typ Starlink
Phasenstatus In Orbit
Besitzer/Staat SPXS/US

Große Konstellationen

Loading constellations...